Weather History for Fort Wayne, IN

Change the Weather History Date:

Friday, February 14, 2014

  Actual Average Record
Temperature  
Mean Temperature 25 °F 28 °F  
Max Temperature 32 °F 36 °F 63 °F (1918)
Min Temperature 18 °F 20 °F -18 °F (1905)
Degree Days  
Heating Degree Days 40 37  
Month to date heating degree days 743 538  
Since 1 July heating degree days 4677 4109  
Cooling Degree Days 0 0  
Month to date cooling degree days 0 0  
Year to date cooling degree days 0 0  
Moisture  
Dew Point 15 °F    
Average Humidity 76    
Maximum Humidity 84    
Minimum Humidity 68    
Precipitation  
Precipitation T in 0.07 in 1.45 in (1949)
Month to date precipitation 2.08 0.99  
Year to date precipitation 4.67 3.25  
Snow  
Snow T in 0.30 in 2.30 in (1991)
Month to date snowfall 15.5 4.3  
Since 1 July snowfall 56.7 25.0  
Snow Depth 7.00 in    
Sea Level Pressure  
Sea Level Pressure 29.72 in    
Wind  
Wind Speed 12 mph (West)    
Max Wind Speed 32 mph    
Max Gust Speed 40 mph    
Visibility 8 miles    
Events Snow    
T = Trace of Precipitation, MM = Missing Value Source: NWS Daily Summary

Daily Weather History Graph

Daily Weather History Graph

Search for Another Location

Airport:

Trip Planner

Search our weather history database for the weather conditions in past years. The results will help you decide how hot, cold, wet, or windy it might be!

Date:

Astronomy

Feb. 14, 2014 Rise Set
Actual Time 7:36 AM EST 6:14 PM EST
Civil Twilight 7:08 AM EST 6:42 PM EST
Nautical Twilight 6:35 AM EST 7:14 PM EST
Astronomical Twilight 6:04 AM EST 7:46 PM EST
Moon 6:17 PM EST (2/14) 7:02 AM EST (2/14)
Length of Visible Light 11h 34m
Length of Day
10h 37m
Full, 100% of the Moon is Illuminated
Feb 14
Full
Feb 14
Full
Feb 22
Last Quarter
Mar 1
New
Mar 8
First Quarter

Hourly Weather History & Observations

Time (EST) Temp. Windchill Dew Point Humidity Pressure Visibility Wind Dir Wind Speed Gust Speed Precip Events Conditions
12:45 AM 30.2 °F 18.9 °F 21.2 °F 69% 29.50 in 10.0 mi SW 16.1 mph - N/A   Overcast
12:54 AM 30.0 °F 18.7 °F 21.9 °F 72% 29.53 in 10.0 mi SW 16.1 mph - N/A   Overcast
1:54 AM 27.0 °F 10.8 °F 21.0 °F 78% 29.53 in 5.0 mi West 29.9 mph 40.3 mph N/A Snow Blowing Snow
2:54 AM 24.1 °F 9.8 °F 18.0 °F 77% 29.57 in 10.0 mi West 19.6 mph 29.9 mph N/A   Overcast
3:54 AM 21.9 °F 7.3 °F 17.1 °F 82% 29.59 in 10.0 mi West 18.4 mph - N/A   Overcast
4:54 AM 21.0 °F 6.6 °F 16.0 °F 81% 29.62 in 8.0 mi West 17.3 mph - N/A   Overcast
5:54 AM 19.9 °F 3.9 °F 15.1 °F 81% 29.64 in 8.0 mi West 20.7 mph - N/A   Overcast
6:54 AM 19.0 °F 5.0 °F 14.0 °F 81% 29.67 in 8.0 mi West 15.0 mph - N/A   Overcast
7:54 AM 19.0 °F 7.5 °F 14.0 °F 81% 29.68 in 7.0 mi West 10.4 mph - N/A   Overcast
8:54 AM 19.0 °F 5.6 °F 14.0 °F 81% 29.72 in 7.0 mi WSW 13.8 mph - N/A   Overcast
9:54 AM 19.9 °F 10.1 °F 14.0 °F 78% 29.72 in 6.0 mi WSW 8.1 mph - 0.00 in Snow Light Snow
10:54 AM 19.9 °F 7.3 °F 14.0 °F 78% 29.75 in 7.0 mi WSW 12.7 mph - 0.00 in   Overcast
11:54 AM 18.0 °F 3.1 °F 12.9 °F 81% 29.77 in 7.0 mi SW 16.1 mph - N/A   Overcast
12:54 PM 18.0 °F 5.4 °F 12.0 °F 78% 29.76 in 7.0 mi SSW 11.5 mph - 0.00 in   Overcast
1:21 PM 19.4 °F 10.4 °F 12.2 °F 74% 29.70 in 7.0 mi SW 6.9 mph - N/A   Overcast
1:54 PM 19.0 °F 7.5 °F 12.9 °F 77% 29.76 in 7.0 mi WSW 10.4 mph - N/A   Overcast
2:54 PM 19.9 °F 11.1 °F 12.9 °F 74% 29.74 in 7.0 mi SW 6.9 mph - N/A   Overcast
3:54 PM 21.0 °F 12.4 °F 14.0 °F 74% 29.74 in 7.0 mi West 6.9 mph - N/A   Overcast
4:54 PM 21.0 °F 12.4 °F 12.9 °F 71% 29.75 in 8.0 mi West 6.9 mph - N/A   Overcast
5:54 PM 19.9 °F 11.1 °F 14.0 °F 78% 29.76 in 8.0 mi West 6.9 mph - N/A   Overcast
6:54 PM 19.0 °F 12.3 °F 14.0 °F 81% 29.80 in 8.0 mi West 4.6 mph - N/A   Overcast
7:54 PM 21.0 °F 13.4 °F 12.9 °F 71% 29.81 in 7.0 mi WNW 5.8 mph - N/A   Overcast
8:08 PM 19.4 °F 10.4 °F 12.2 °F 74% 29.78 in 7.0 mi WNW 6.9 mph - N/A   Overcast
8:54 PM 19.9 °F 10.1 °F 12.9 °F 74% 29.83 in 7.0 mi WNW 8.1 mph - N/A   Overcast
9:36 PM 19.4 °F 9.5 °F 12.2 °F 74% 29.81 in 8.0 mi NW 8.1 mph - N/A   Scattered Clouds
9:54 PM 19.0 °F 11.1 °F 12.9 °F 77% 29.85 in 8.0 mi NW 5.8 mph - N/A   Mostly Cloudy
10:11 PM 19.4 °F 7.9 °F 12.2 °F 74% 29.81 in 8.0 mi NW 10.4 mph - 0.00 in Snow Light Snow
10:54 PM 19.9 °F 6.7 °F 14.0 °F 78% 29.86 in 9.0 mi NW 13.8 mph 19.6 mph 0.00 in   Overcast
11:54 PM 19.9 °F 8.6 °F 14.0 °F 78% 29.87 in 10.0 mi NNW 10.4 mph - N/A   Overcast